Weather History for KHRL - January, 2013

Change the Weather History Date:

Wednesday, January 16, 2013

  Actual Average Record
Temperature  
Mean Temperature 50 °F 60 °F  
Max Temperature 60 °F 71 °F 90 °F (1943)
Min Temperature 40 °F 49 °F 32 °F (1930)
Degree Days  
Heating Degree Days 15 7  
Month to date heating degree days 147 112  
Since 1 July heating degree days 260 360  
Cooling Degree Days 0 2  
Month to date cooling degree days 16 32  
Year to date cooling degree days 16 32  
Moisture  
Dew Point 26 °F    
Average Humidity 45    
Maximum Humidity 70    
Minimum Humidity 19    
Precipitation  
Precipitation 0.00 in 0.03 in 1.73 in (1988)
Month to date precipitation 2.54 0.42  
Year to date precipitation 2.54 0.42  
Sea Level Pressure  
Sea Level Pressure 30.31 in    
Wind  
Wind Speed 14 mph (NW)    
Max Wind Speed 25 mph    
Max Gust Speed 33 mph    
Visibility 10 miles    
Events      
T = Trace of Precipitation, MM = Missing Value Source: NWS Daily Summary

Daily Weather History Graph

Daily Weather History Graph

Search for Another Location

Airport or City:

Trip Planner

Search our weather history database for the weather conditions in past years. The results will help you decide how hot, cold, wet, or windy it might be!

Date:

Astronomy

Jan. 16, 2013 Rise Set
Actual Time 7:19 AM CST 6:01 PM CST
Civil Twilight 6:54 AM CST 6:26 PM CST
Nautical Twilight 6:26 AM CST 6:54 PM CST
Astronomical Twilight 5:58 AM CST 7:22 PM CST
Moon 10:32 AM CST (1/16) 11:15 PM CST (1/16)
Length of Visible Light 11h 31m
Length of Day
10h 41m
Waxing Crescent, 28% of the Moon is Illuminated
Jan 16
Waxing Crescent
Jan 18
First Quarter
Jan 26
Full
Feb 3
Last Quarter
Feb 10
New

Hourly Weather History & Observations

Time (CST) Temp. Windchill Dew Point Humidity Pressure Visibility Wind Dir Wind Speed Gust Speed Precip Events Conditions
12:52 AM 44.1 °F 36.2 °F 36.0 °F 73% 30.24 in 10.0 mi NNW 18.4 mph - N/A   Overcast
1:52 AM 45.0 °F 36.4 °F 35.1 °F 68% 30.25 in 10.0 mi NNW 23.0 mph 28.8 mph N/A   Overcast
2:52 AM 44.1 °F 36.5 °F 34.0 °F 68% 30.26 in 10.0 mi NNW 17.3 mph - N/A   Overcast
3:52 AM 44.1 °F 36.5 °F 33.1 °F 65% 30.28 in 10.0 mi NNW 17.3 mph - N/A   Overcast
4:52 AM 43.0 °F 34.5 °F 30.0 °F 60% 30.29 in 10.0 mi NNW 19.6 mph - N/A   Overcast
5:52 AM 43.0 °F 35.1 °F 28.9 °F 58% 30.31 in 10.0 mi NNW 17.3 mph - N/A   Overcast
6:52 AM 42.1 °F 33.3 °F 27.0 °F 55% 30.33 in 10.0 mi NNW 19.6 mph 27.6 mph N/A   Overcast
7:52 AM 41.0 °F 33.1 °F 27.0 °F 57% 30.36 in 10.0 mi NNW 15.0 mph - N/A   Overcast
8:52 AM 41.0 °F 33.5 °F 25.0 °F 53% 30.38 in 10.0 mi NNW 13.8 mph - N/A   Scattered Clouds
9:52 AM 46.0 °F 39.6 °F 23.0 °F 40% 30.39 in 10.0 mi NNW 15.0 mph - N/A   Clear
10:52 AM 53.1 °F - 21.9 °F 30% 30.37 in 10.0 mi NNW 18.4 mph - N/A   Clear
11:52 AM 54.0 °F - 21.9 °F 29% 30.34 in 10.0 mi North 21.9 mph 27.6 mph N/A   Clear
12:52 PM 55.9 °F - 21.0 °F 26% 30.31 in 10.0 mi North 19.6 mph - N/A   Clear
1:52 PM 57.0 °F - 21.0 °F 25% 30.27 in 10.0 mi NNW 20.7 mph 27.6 mph N/A   Clear
2:52 PM 57.9 °F - 19.0 °F 22% 30.25 in 10.0 mi NW 20.7 mph 26.5 mph N/A   Clear
3:52 PM 60.1 °F - 18.0 °F 20% 30.25 in 10.0 mi NW 23.0 mph 28.8 mph N/A   Clear
4:52 PM 57.9 °F - 16.0 °F 19% 30.26 in 10.0 mi NW 18.4 mph - N/A   Clear
5:52 PM 53.1 °F - 19.0 °F 26% 30.28 in 10.0 mi NW 8.1 mph - N/A   Clear
6:52 PM 50.0 °F - 21.0 °F 32% 30.30 in 10.0 mi WNW 3.5 mph - N/A   Clear
7:52 PM 48.0 °F - 23.0 °F 37% 30.32 in 10.0 mi West 5.8 mph - N/A   Clear
8:52 PM 45.0 °F 43.5 °F 27.0 °F 49% 30.33 in 10.0 mi West 3.5 mph - N/A   Clear
9:52 PM 42.1 °F - 28.9 °F 60% 30.33 in 10.0 mi Calm Calm - N/A   Clear
10:52 PM 42.1 °F 39.2 °F 27.0 °F 55% 30.34 in 10.0 mi West 4.6 mph - N/A   Clear
11:52 PM 41.0 °F - 28.9 °F 62% 30.35 in 10.0 mi Calm Calm - N/A   Clear